FW9211 Weather Reports


time (UTC)temp
F
wind
direction
speed
knots
gust
knots
rain 1hr
in
rain 24hr
in
rain mn
in
humidity
%
barometer
mb
20260505041601 66 110 2.6 7.0 0.00 1.33 1.00 62 1017.8
20260505040057 66 140 2.6 10.4 0.00 1.33 1.00 64 1017.6
20260505034548 67 135 4.3 7.8 0.00 1.33 1.00 64 1017.7
20260505033052 66 129 2.6 7.0 0.00 1.33 1.00 67 1017.6
20260505031555 66 146 1.7 5.2 0.00 1.33 1.00 67 1017.7
20260505030119 66 142 1.7 7.0 0.00 1.33 1.00 68 1017.9
20260505024556 66 116 0.9 6.1 0.00 1.33 1.00 71 1018.1
20260505023052 66 119 3.5 7.0 0.00 1.33 1.00 73 1018.3
20260505021552 65 131 0.9 7.8 0.00 1.33 1.00 76 1018.5
20260505020100 65 120 0.9 4.3 0.00 1.33 1.00 78 1018.4
20260505014610 65 103 2.6 6.1 0.00 1.33 1.00 78 1018.5
20260505013056 66 122 0.9 4.3 0.00 1.33 1.00 77 1018.7
20260505011558 66 133 0.9 6.1 0.00 1.33 1.00 78 1018.5
20260505010103 64 129 1.7 5.2 0.00 1.33 1.00 79 1018.9
20260505004556 64 108 1.7 6.1 0.00 1.33 1.00 78 1019.1
20260505003058 64 111 2.6 6.1 0.00 1.33 1.00 81 1018.8
20260505001557 63 109 3.5 7.8 0.00 1.33 1.00 80 1019.3
20260505000058 62 130 1.7 7.0 0.00 1.33 1.00 83 1019.1
20260504234553 61 115 0.0 5.2 0.00 1.33 1.00 85 1018.9
20260504233054 61 122 1.7 6.1 0.00 1.33 1.00 86 1019.2
20260504231551 60 150 0.9 3.5 0.00 1.33 1.00 91 1019.1
20260504230053 59 140 0.9 3.5 0.00 1.33 1.00 93 1018.6
20260504224553 59 0 0.0 1.7 0.00 1.33 1.00 93 1018.9
20260504223110 59 146 1.7 4.3 0.01 1.33 1.00 94 1018.5
20260504221553 58 0 0.0 0.0 0.01 1.33 1.00 95 1018.6
20260504220053 58 134 0.0 3.5 0.01 1.33 1.00 95 1018.3
20260504214557 58 135 0.0 2.6 0.00 1.32 0.99 96 1018.5
20260504213056 57 0 0.0 0.9 0.00 1.31 0.98 96 1018.3
20260504211639 57 141 0.0 1.7 0.00 1.31 0.98 96 1018.5
20260504210055 57 0 0.0 0.9 0.01 1.31 0.98 96 1018.4
20260504204551 57 0 0.0 2.6 0.01 1.31 0.98 95 1018.1
20260504203108 58 97 0.9 6.1 0.03 1.31 0.98 95 1017.8
20260504201604 60 127 2.6 6.1 0.07 1.30 0.97 96 1018.0
20260504200054 61 118 0.9 5.2 0.14 1.29 0.96 96 1017.8
20260504194555 61 135 0.9 3.5 0.18 1.29 0.96 96 1018.0
20260504193102 61 0 0.0 1.7 0.17 1.28 0.95 96 1017.8
20260504191607 61 141 0.0 2.6 0.11 1.22 0.88 96 1018.1
20260504190106 61 154 0.0 0.0 0.03 1.14 0.81 96 1018.2
20260504184555 61 0 0.0 2.6 0.00 1.11 0.77 96 1017.6
20260504183053 61 92 0.0 6.1 0.00 1.11 0.77 96 1017.1
20260504181600 62 145 1.7 6.1 0.02 1.11 0.77 96 1017.3
20260504180054 63 111 0.9 2.6 0.18 1.11 0.77 96 1017.4
20260504174552 63 0 0.0 0.0 0.29 1.10 0.77 96 1017.4
20260504173056 63 0 0.0 3.5 0.33 1.10 0.77 96 1017.1
20260504171552 63 76 0.0 0.9 0.34 1.07 0.74 96 1017.1
20260504081605 67 128 0.0 1.7 0.00 0.01 0.01 88 1016.2